San Antonio, TX

5:45 AM CDT on August 23, 2017 (GMT -0500)
San Antonio International

Weather History for KSAT - July, 2013

Change the Weather History Date:

Monday, July 22, 2013

  Actual Average Record
Temperature  
Mean Temperature 90 °F 85 °F  
Max Temperature 100 °F 95 °F 102 °F (2006)
Min Temperature 80 °F 75 °F 64 °F (1888)
Degree Days  
Heating Degree Days 0 0  
Month to date heating degree days 0 0  
Since 1 June heating degree days 0 0  
Since 1 July heating degree days 0 0  
Cooling Degree Days 25 20  
Month to date cooling degree days 442 426  
Year to date cooling degree days 1634 1578  
Since 1 June cooling degree days 1017 949  
Growing Degree Days 40 (Base 50)    
Moisture  
Dew Point 73 °F    
Average Humidity 60    
Maximum Humidity 85    
Minimum Humidity 35    
Precipitation  
Precipitation 0.00 in 0.06 in 3.62 in (1961)
Month to date precipitation 0.68 2.22  
Year to date precipitation 22.54 18.33  
Snow  
Snow 0.00 in - - ()
Month to date snowfall 0.0  
Since 1 June snowfall 0.0  
Since 1 July snowfall 0.0  
Snow Depth 0.00 in    
Sea Level Pressure  
Sea Level Pressure 29.92 in    
Wind  
Wind Speed 14 mph (SSE)    
Max Wind Speed 22 mph    
Max Gust Speed 29 mph    
Visibility 10 miles    
Events      
T = Trace of Precipitation, MM = Missing Value Source: NWS Daily Summary

Daily Weather History Graph

Daily Weather History Graph

Search for Another Location

Airport or City:

Trip Planner

Search our weather history database for the weather conditions in past years. The results will help you decide how hot, cold, wet, or windy it might be!

Date:

Astronomy

Jul. 22, 2013 Rise Set
Actual Time 6:48 AM CDT 8:32 PM CDT
Civil Twilight 6:21 AM CDT 8:58 PM CDT
Nautical Twilight 5:50 AM CDT 9:30 PM CDT
Astronomical Twilight 5:16 AM CDT 10:03 PM CDT
Moon 8:26 PM CDT (7/22) 6:41 AM CDT (7/22)
Length of Visible Light 14h 36m
Length of Day
13h 44m
Full, 100% of the Moon is Illuminated
Jul 22
Full
Jul 22
Full
Jul 29
Last Quarter
Aug 6
New
Aug 14
First Quarter

Hourly Weather History & Observations

Time (CDT) Temp. Heat Index Dew Point Humidity Pressure Visibility Wind Dir Wind Speed Gust Speed Precip Events Conditions
12:30 AM 82.4 °F 88.2 °F 73.4 °F 74% 29.99 in 10.0 mi SSE 12.7 mph - N/A   Mostly Cloudy
12:51 AM 82.0 °F 88.6 °F 75.0 °F 79% 29.93 in 10.0 mi SE 12.7 mph - N/A   Mostly Cloudy
1:51 AM 82.0 °F 88.6 °F 75.0 °F 79% 29.93 in 10.0 mi SE 11.5 mph - N/A   Overcast
2:51 AM 81.0 °F 86.7 °F 75.0 °F 82% 29.91 in 10.0 mi SSE 11.5 mph - N/A   Overcast
3:38 AM 80.6 °F 86.2 °F 75.2 °F 84% 29.97 in 10.0 mi South 13.8 mph 19.6 mph N/A   Mostly Cloudy
3:51 AM 81.0 °F 86.7 °F 75.0 °F 82% 29.91 in 10.0 mi SSE 10.4 mph - N/A   Mostly Cloudy
4:49 AM 80.6 °F 86.2 °F 75.2 °F 84% 29.97 in 10.0 mi SSE 9.2 mph - N/A   Overcast
4:51 AM 81.0 °F 86.7 °F 75.0 °F 82% 29.91 in 10.0 mi South 9.2 mph - N/A   Overcast
5:51 AM 81.0 °F 86.7 °F 75.0 °F 82% 29.92 in 10.0 mi South 10.4 mph - N/A   Overcast
6:51 AM 80.1 °F 85.1 °F 75.0 °F 85% 29.93 in 10.0 mi SSE 9.2 mph - N/A   Mostly Cloudy
7:51 AM 81.0 °F 86.7 °F 75.0 °F 82% 29.94 in 10.0 mi SSE 10.4 mph - N/A   Mostly Cloudy
7:59 AM 80.6 °F 86.2 °F 75.2 °F 84% 30.00 in 10.0 mi SSE 11.5 mph - N/A   Overcast
8:51 AM 82.9 °F 90.2 °F 75.0 °F 77% 29.95 in 10.0 mi South 11.5 mph - N/A   Mostly Cloudy
9:20 AM 84.2 °F 92.3 °F 75.2 °F 74% 30.01 in 10.0 mi SSE 15.0 mph - N/A   Mostly Cloudy
9:51 AM 86.0 °F 93.8 °F 73.9 °F 67% 29.95 in 10.0 mi South 12.7 mph - N/A   Mostly Cloudy
10:51 AM 89.1 °F 98.0 °F 73.9 °F 61% 29.95 in 10.0 mi SSE 15.0 mph - N/A   Mostly Cloudy
11:51 AM 91.0 °F 99.3 °F 73.0 °F 55% 29.95 in 10.0 mi South 13.8 mph 21.9 mph N/A   Mostly Cloudy
12:51 PM 95.0 °F 104.5 °F 73.0 °F 49% 29.94 in 10.0 mi South 12.7 mph 20.7 mph N/A   Mostly Cloudy
1:51 PM 97.0 °F 103.5 °F 70.0 °F 41% 29.91 in 10.0 mi SSE 12.7 mph 23.0 mph N/A   Mostly Cloudy
2:51 PM 98.1 °F 104.4 °F 69.1 °F 39% 29.89 in 10.0 mi South 17.3 mph 24.2 mph N/A   Mostly Cloudy
3:51 PM 98.1 °F 103.0 °F 68.0 °F 37% 29.88 in 10.0 mi South 13.8 mph 19.6 mph N/A   Mostly Cloudy
4:51 PM 98.1 °F 102.4 °F 66.9 °F 36% 29.86 in 10.0 mi South 12.7 mph - N/A   Scattered Clouds
5:51 PM 96.1 °F 99.9 °F 66.9 °F 38% 29.85 in 10.0 mi SSE 16.1 mph - N/A   Scattered Clouds
6:51 PM 97.0 °F 101.0 °F 66.9 °F 37% 29.83 in 10.0 mi SSE 19.6 mph - N/A   Scattered Clouds
7:51 PM 93.0 °F 100.1 °F 71.1 °F 49% 29.85 in 10.0 mi SE 16.1 mph - N/A   Scattered Clouds
8:51 PM 89.1 °F 97.0 °F 73.0 °F 59% 29.87 in 10.0 mi SE 19.6 mph - N/A   Scattered Clouds
9:51 PM 87.1 °F 95.4 °F 73.9 °F 65% 29.90 in 10.0 mi SE 20.7 mph 26.5 mph N/A   Scattered Clouds
10:51 PM 84.9 °F 93.3 °F 75.0 °F 72% 29.92 in 10.0 mi SE 15.0 mph 24.2 mph N/A   Scattered Clouds
11:31 PM 84.2 °F 92.3 °F 75.2 °F 74% 29.99 in 10.0 mi SE 10.4 mph - N/A   Mostly Cloudy
11:51 PM 82.9 °F 90.2 °F 75.0 °F 77% 29.93 in 10.0 mi SE 17.3 mph 23.0 mph N/A   Mostly Cloudy